Location: Brahman Valley
(40.6513°N, 111.8855°W)
Time: 09:35:06
(UTC+00:00)

Tiros 1 despin weight - Pass Details

Date: 18 May 2021
Orbit: 594 x 641 km, 48.2° (Epoch: 22 June)

Event Time Altitude Azimuth Distance (km) Brightness Sun altitude
Rises 23:25:21 0° 181° (S) 2,871 ? 35.0°
Reaches altitude 10° 23:29:18 10° 147° (SSE) 1,986 ? 34.3°
Maximum altitude 23:30:39 11° 129° (SE) 1,914 ? 34.0°
Drops below altitude 10° 23:32:01 10° 112° (ESE) 1,998 ? 33.8°
Sets 23:36:02 0° 78° (ENE) 2,923 ? 33.0°
